Regional Weather Roundup
Issued by NWS

Home | Current Version | Previous Version | Graphics & Text | Print | Product List | Glossary On
Versions: 1 2 3 4 5 6 7 8 9 10 11 12 13 14 15 16 17 18 19 20 21 22 23 24 25 26 27
000
ASUS45 KTFX 251210
RWRMT
MONTANA REGIONAL WEATHER ROUNDUP
NATIONAL WEATHER SERVICE GREAT FALLS MT
600 AM MDT MON SEP 25 2017

NOTE: "FAIR" INDICATES FEW OR NO CLOUDS BELOW 12000 FEET WITH NO
SIGNIFICANT WEATHER AND/OR OBSTRUCTIONS TO VISIBILITY.

MTZ001>007-043-251300-
WEST OF THE DIVIDE

CITY           SKY/WX    TMP DP  RH WIND       PRES   REMARKS
KALISPELL      CLOUDY    46  44  93 CALM      30.06S
MISSOULA       CLOUDY    47  41  80 CALM      30.09F
BUTTE          CLOUDY    28  26  92 S3        30.12S
MULLAN PASS    LGT RAIN  39  35  86 NW5       30.11S
ANACONDA         N/A     37  30  75 S6        30.10F
DEER LODGE       N/A     36  32  87 CALM      30.13R
EUREKA           N/A     48  39  71 MISG      30.05S
HAMILTON         N/A     45  36  70 S5        30.10S
LIBBY            N/A     46  43  87 CALM      30.05S
$$

MTZ008-052>055-251300-
SOUTHWEST MONTANA

CITY           SKY/WX    TMP DP  RH WIND       PRES   REMARKS
BOZEMAN        CLOUDY    32  29  88 E3        30.12R
DILLON         CLOUDY    34  28  79 CALM      30.11S
W YELLOWSTONE  CLEAR     27  27 100 CALM      30.11S
ENNIS          PTCLDY    27  23  86 NE3       30.16S
THREE FORKS      N/A     28  26  92 CALM      30.09S VSB 0
$$

MTZ009-010-012-014-046-048-049-054-251300-
EAST SLOPES AND CENTRAL MONTANA

CITY           SKY/WX    TMP DP  RH WIND       PRES   REMARKS
CUT BANK       CLEAR     29  27  92 N3        30.01F
GREAT FALLS    CLEAR     38  30  73 S10       30.04S WCI  31
MALMSTROM AFB  CLEAR     38  31  76 S5        30.05R
HELENA         PTCLDY    35  32  88 CALM      30.10R
BOWMANS CRNR     N/A     36  30  78 S12       30.03S WCI  28
CHOTEAU          N/A     37  32  81 SW5       30.05S
$$

MTZ011-013-016-021-045-047-050-051-251300-
NORTH CENTRAL MONTANA

CITY           SKY/WX    TMP DP  RH WIND       PRES   REMARKS
HAVRE          CLEAR     32  29  88 CALM      30.05R
LEWISTOWN      CLEAR     30  28  92 SE6       30.06S WCI  24
N BAR RANCH      N/A     28  27  93 NW5       30.09S
CHINOOK          N/A     36  34  93 E3        30.05S
DENTON           N/A     34  30  87 S10       30.03R WCI  26
WINIFRED         N/A     39  32  75 N5        30.05S
$$

MTZ017>020-022>027-061-062-251300-
NORTHEAST MONTANA

CITY           SKY/WX    TMP DP  RH WIND       PRES   REMARKS
GLASGOW        CLOUDY    38  36  92 E9        30.11S WCI  31
JORDAN           N/A     31  28  89 E3        30.11S
SIDNEY           N/A    N/A N/A N/A MISG        N/A
WOLF POINT     FOG       33  31  92 E5        30.15R VSB 1/4
MALTA          CLEAR     41  37  87 S5        30.09S
PLENTYWOOD       N/A     39  36  87 CALM      30.14S
POPLAR           N/A     34  30  86 SE3       30.16R VSB 0
$$

MTZ028>42-056>058-251300-
SOUTHCENTRAL AND SOUTHEAST MONTANA

CITY           SKY/WX    TMP DP  RH WIND       PRES   REMARKS
BAKER          CLOUDY    41  38  89 SE6       30.14S
BILLINGS       PTCLDY    37  35  92 CALM      30.09S
LIVINGSTON     CLEAR     28  25  88 SW3       30.10S
MILES CITY     CLOUDY    37  35  92 S5        30.13R
BIG TIMBER     CLEAR     34  32  93 CALM      30.11S
LAUREL         FOG       37  36  93 W7        30.10S VSB 1/2
$$

REGIONAL REPORTS...DAKOTAS

CITY           SKY/WX    TMP DP  RH WIND       PRES   REMARKS
WILLISTON      CLOUDY    45  44  97 CALM      30.16R
MINOT          CLOUDY    47  44  90 CALM      30.14R
DICKINSON      CLOUDY    44  41  89 CALM      30.14R
BEACH          CLOUDY    41  41 100 CALM      30.17S
CROSBY         CLOUDY    43  43 100 CALM      30.15S
TIOGA          CLOUDY    45  45 100 CALM      30.16R
BISMARCK       CLOUDY    48  45  89 N3        30.16R
GRAND FORKS    CLOUDY    49  47  93 N8        30.11R
FARGO          CLOUDY    50  48  93 N8        30.09R
BUFFALO SD       N/A     42  41  96 CALM      30.08S
RAPID CITY     CLOUDY    45  43  93 N3        30.13
$$

REGIONAL REPORTS...WYOMING/IDAHO/WASHINGTON

CITY           SKY/WX    TMP DP  RH WIND       PRES   REMARKS
GILLETTE       CLOUDY    40  50 100 CALM      30.12R
SHERIDAN       LGT RAIN  43  42  97 CALM      30.10S
BUFFALO WY     LGT RAIN  40  37  89 S8        30.12R
CODY           CLOUDY    39  35  86 CALM      30.11S
IDAHO FALLS    CLEAR     33  30  88 CALM      30.12R
SALMON         CLOUDY    41  37  86 CALM      30.13R
BOISE          CLEAR     40  35  83 S5        30.08R
SPOKANE        MOCLDY    51  43  74 S5        30.06S
$$

REGIONAL REPORTS...ALBERTA

CITY           SKY/WX    TMP DP  RH WIND       PRES   REMARKS
EDMONTON       MOCLDY    50  46  87 SW5       29.89S
CALGARY        MOCLDY    45  36  70 CALM      29.97R
LETHBRIDGE     CLOUDY    46  36  66 SW9       29.97R
MEDICINE HAT   CLEAR     36  30  80 CALM      29.98S
$$

REGIONAL REPORTS...SASKATCHEWAN

CITY           SKY/WX    TMP DP  RH WIND       PRES   REMARKS
SWIFT CURRENT    N/A     37  32  81 S13       30.03S WCI  29
REGINA         CLOUDY    45  36  70 S8        30.11S
SASKATOON      PTCLDY    36  32  87 S7        30.07R WCI  30
$$




USA.gov is the U.S. government's official web portal to all federal, state and local government web resources and services.